TimeCDT,TemperatureF,Dew PointF,Humidity,Sea Level PressureIn,VisibilityMPH,Wind Direction,Wind SpeedMPH,Gust SpeedMPH,PrecipitationIn,Events,Conditions,WindDirDegrees,DateUTC
12:14 AM,69.8,59.0,68,30.14,10.0,WNW,20.7,27.6,0.00,Rain,Light Rain,300,2013-07-25 05:14:00
12:53 AM,69.1,59.0,70,30.05,10.0,NNW,3.5,21.9,0.00,,Overcast,330,2013-07-25 05:53:00
1:53 AM,68.0,59.0,73,30.07,10.0,NW,9.2,-,0.01,Rain,Light Rain,310,2013-07-25 06:53:00
2:53 AM,68.0,57.9,70,30.03,10.0,WSW,8.1,-,0.00,,Overcast,250,2013-07-25 07:53:00
3:53 AM,66.0,59.0,78,30.00,10.0,Calm,Calm,-,0.00,,Overcast,0,2013-07-25 08:53:00
4:53 AM,68.0,59.0,73,29.98,10.0,SE,5.8,-,N/A,,Overcast,140,2013-07-25 09:53:00
5:53 AM,66.0,61.0,84,29.98,10.0,SE,17.3,24.2,0.06,Rain,Light Rain,140,2013-07-25 10:53:00
6:53 AM,66.0,61.0,84,29.98,10.0,East,6.9,-,0.00,,Mostly Cloudy,80,2013-07-25 11:53:00
7:53 AM,66.0,62.1,87,29.99,10.0,East,8.1,-,N/A,,Scattered Clouds,90,2013-07-25 12:53:00
8:53 AM,66.9,62.1,84,30.00,10.0,SE,8.1,-,N/A,,Clear,130,2013-07-25 13:53:00
9:53 AM,69.1,63.0,81,30.01,10.0,SE,6.9,-,N/A,,Partly Cloudy,130,2013-07-25 14:53:00
10:53 AM,73.9,64.0,71,30.00,10.0,SE,9.2,-,N/A,,Mostly Cloudy,130,2013-07-25 15:53:00
11:53 AM,79.0,64.9,62,29.99,10.0,SSE,13.8,-,N/A,,Clear,150,2013-07-25 16:53:00
12:53 PM,82.0,64.9,56,29.99,10.0,SSE,13.8,-,N/A,,Scattered Clouds,160,2013-07-25 17:53:00
1:53 PM,80.1,63.0,56,29.99,10.0,South,8.1,-,N/A,,Clear,180,2013-07-25 18:53:00
2:53 PM,80.1,61.0,52,29.99,10.0,South,9.2,-,N/A,,Mostly Cloudy,170,2013-07-25 19:53:00
3:53 PM,73.9,66.0,76,29.99,8.0,SSW,5.8,-,0.02,Rain,Light Rain,210,2013-07-25 20:53:00
4:53 PM,75.0,66.9,76,29.96,10.0,NNW,5.8,-,0.02,Rain,Light Rain,340,2013-07-25 21:53:00
5:53 PM,73.0,68.0,84,29.99,9.0,North,3.5,-,0.00,Rain,Light Rain,350,2013-07-25 22:53:00
6:53 PM,77.0,64.9,66,29.98,10.0,Calm,Calm,-,0.00,,Partly Cloudy,0,2013-07-25 23:53:00
7:53 PM,75.9,66.0,71,29.98,10.0,ESE,5.8,-,N/A,,Clear,120,2013-07-26 00:53:00
8:53 PM,72.0,66.9,84,29.99,10.0,SSE,3.5,-,N/A,,Clear,160,2013-07-26 01:53:00
9:53 PM,70.0,66.9,90,30.03,8.0,SE,3.5,-,N/A,,Clear,140,2013-07-26 02:53:00
10:53 PM,66.9,64.9,93,30.05,5.0,Calm,Calm,-,N/A,,Partly Cloudy,0,2013-07-26 03:53:00
11:53 PM,66.0,64.9,96,30.06,3.0,Calm,Calm,-,0.01,,Clear,0,2013-07-26 04:53:00